QPF
0.06 0.06 0.05 0.05 0.06 0.05 0.04 0.04 0.05 0.05 0.03 0.02 0.01 0.01 0.01 0.01 0.02 0.01 0.01 0.01 0.00 0.00 0.00 0.00 0.00 0.00 0.00 0.00 0.00 0.00 0.00 0.00 0.00 0.00 0.01 0.02 0.02 0.02
0.10 0.09 0.08 0.08 0.07 0.07 0.07 0.06 0.06 0.07 0.05 0.03 0.02 0.02 0.02 0.01 0.01 0.01 0.01 0.01 0.00 0.00 0.00 0.00 0.00 0.00 0.00 0.00 0.00 0.00 0.00 0.00 0.00 0.00 0.01 0.01 0.01 0.02
0.10 0.10 0.09 0.09 0.09 0.09 0.09 0.09 0.09 0.09 0.08 0.05 0.04 0.04 0.04 0.03 0.02 0.01 0.01 0.01 0.00 0.00 0.00 0.00 0.00 0.00 0.00 0.00 0.00 0.00 0.01 0.01 0.00 0.00 0.00 0.01 0.02 0.02
0.09 0.08 0.07 0.07 0.07 0.07 0.08 0.08 0.08 0.09 0.09 0.08 0.06 0.05 0.04 0.04 0.04 0.03 0.02 0.01 0.01 0.01 0.01 0.01 0.00 0.00 0.00 0.00 0.00 0.01 0.01 0.00 0.00 0.00 0.00 0.01 0.01 0.01
0.09 0.09 0.09 0.09 0.10 0.09 0.09 0.09 0.09 0.10 0.10 0.10 0.09 0.07 0.05 0.04 0.04 0.04 0.03 0.03 0.02 0.02 0.02 0.02 0.01 0.01 0.01 0.00 0.01 0.01 0.01 0.00 0.01 0.02 0.01 0.01 0.01 0.01
0.10 0.09 0.08 0.07 0.07 0.07 0.08 0.09 0.10 0.11 0.11 0.12 0.11 0.09 0.07 0.06 0.06 0.06 0.05 0.04 0.04 0.03 0.03 0.02 0.02 0.01 0.01 0.00 0.01 0.01 0.02 0.01 0.01 0.02 0.02 0.02 0.01 0.01
0.08 0.08 0.08 0.08 0.09 0.09 0.09 0.10 0.10 0.11 0.11 0.11 0.11 0.10 0.09 0.07 0.07 0.06 0.06 0.06 0.05 0.04 0.03 0.02 0.01 0.01 0.00 0.00 0.00 0.00 0.01 0.01 0.01 0.01 0.01 0.01 0.02 0.01
0.09 0.08 0.08 0.09 0.10 0.11 0.11 0.10 0.10 0.11 0.11 0.11 0.10 0.08 0.07 0.06 0.05 0.06 0.06 0.06 0.05 0.03 0.03 0.02 0.02 0.01 0.01 0.00 0.00 0.00 0.00 0.01 0.01 0.01 0.01 0.01 0.01 0.01
0.09 0.09 0.09 0.09 0.10 0.08 0.08 0.08 0.07 0.08 0.08 0.08 0.08 0.07 0.06 0.06 0.06 0.06 0.05 0.04 0.03 0.02 0.02 0.02 0.02 0.01 0.01 0.00 0.00 0.00 0.00 0.00 0.01 0.01 0.01 0.00 0.01 0.01
0.08 0.08 0.08 0.08 0.08 0.08 0.08 0.08 0.07 0.06 0.06 0.06 0.06 0.06 0.06 0.06 0.07 0.07 0.06 0.06 0.05 0.03 0.02 0.02 0.01 0.01 0.00 0.00 0.00 0.00 0.00 0.00 0.00 0.00 0.00 0.00 0.01 0.01
0.10 0.09 0.08 0.07 0.08 0.09 0.08 0.07 0.07 0.06 0.06 0.06 0.06 0.06 0.06 0.05 0.05 0.05 0.05 0.05 0.04 0.03 0.02 0.02 0.01 0.01 0.01 0.00 0.00 0.00 0.00 0.00 0.00 0.00 0.00 0.00 0.01 0.01
0.09 0.09 0.10 0.09 0.09 0.08 0.07 0.07 0.07 0.06 0.05 0.05 0.06 0.06 0.05 0.05 0.05 0.04 0.03 0.03 0.03 0.02 0.02 0.02 0.01 0.01 0.01 0.01 0.00 0.00 0.00 0.00 0.00 0.00 0.00 0.01 0.01 0.01
0.07 0.07 0.08 0.09 0.09 0.08 0.08 0.07 0.07 0.06 0.06 0.06 0.06 0.06 0.05 0.05 0.04 0.04 0.04 0.04 0.04 0.03 0.02 0.01 0.01 0.01 0.01 0.01 0.00 0.00 0.00 0.00 0.00 0.00 0.00 0.01 0.01 0.01
0.07 0.07 0.07 0.08 0.08 0.08 0.08 0.07 0.07 0.07 0.07 0.07 0.07 0.06 0.05 0.04 0.04 0.05 0.05 0.05 0.04 0.04 0.03 0.02 0.02 0.01 0.01 0.01 0.00 0.00 0.00 0.00 0.00 0.00 0.00 0.00 0.01 0.01
0.06 0.07 0.07 0.07 0.07 0.07 0.07 0.08 0.07 0.07 0.07 0.07 0.06 0.05 0.05 0.06 0.07 0.07 0.07 0.06 0.05 0.04 0.03 0.03 0.02 0.02 0.01 0.01 0.00 0.00 0.00 0.00 0.00 0.00 0.00 0.00 0.00 0.01
0.05 0.06 0.06 0.06 0.06 0.06 0.07 0.07 0.07 0.07 0.07 0.06 0.06 0.06 0.07 0.08 0.09 0.09 0.08 0.07 0.06 0.05 0.04 0.03 0.02 0.02 0.01 0.01 0.00 0.00 0.00 0.00 0.00 0.00 0.00 0.00 0.00 0.01
0.05 0.06 0.05 0.05 0.05 0.06 0.06 0.07 0.07 0.07 0.08 0.08 0.07 0.07 0.08 0.09 0.09 0.09 0.08 0.07 0.06 0.04 0.04 0.03 0.02 0.02 0.01 0.00 0.00 0.00 0.00 0.00 0.00 0.00 0.00 0.00 0.00 0.00
0.06 0.06 0.06 0.06 0.06 0.06 0.07 0.07 0.08 0.08 0.08 0.09 0.09 0.09 0.09 0.09 0.09 0.09 0.08 0.07 0.05 0.04 0.04 0.03 0.03 0.02 0.01 0.01 0.00 0.00 0.00 0.00 0.00 0.00 0.00 0.00 0.00 0.00
0.05 0.04 0.04 0.04 0.05 0.06 0.07 0.08 0.09 0.09 0.10 0.11 0.12 0.12 0.11 0.11 0.10 0.08 0.08 0.07 0.05 0.04 0.04 0.03 0.03 0.02 0.01 0.01 0.00 0.00 0.00 0.00 0.00 0.00 0.00 0.00 0.00 0.00
0.04 0.03 0.03 0.04 0.04 0.05 0.06 0.08 0.09 0.10 0.11 0.11 0.12 0.12 0.12 0.11 0.10 0.08 0.06 0.06 0.05 0.04 0.04 0.03 0.02 0.02 0.01 0.01 0.01 0.00 0.00 0.00 0.00 0.00 0.00 0.00 0.00 0.00
0.03 0.03 0.04 0.04 0.05 0.06 0.06 0.07 0.09 0.10 0.11 0.11 0.12 0.12 0.12 0.11 0.09 0.07 0.07 0.06 0.06 0.05 0.03 0.03 0.02 0.02 0.01 0.01 0.01 0.00 0.00 0.00 0.00 0.00 0.00 0.00 0.00 0.00
0.03 0.03 0.04 0.05 0.06 0.07 0.07 0.08 0.08 0.09 0.10 0.12 0.12 0.11 0.11 0.11 0.09 0.08 0.07 0.06 0.05 0.04 0.03 0.03 0.03 0.02 0.01 0.01 0.00 0.00 0.01 0.00 0.00 0.00 0.00 0.00 0.00 0.00
0.03 0.04 0.04 0.05 0.06 0.07 0.08 0.08 0.09 0.08 0.08 0.10 0.11 0.11 0.11 0.11 0.10 0.09 0.08 0.06 0.05 0.04 0.04 0.04 0.03 0.02 0.01 0.01 0.01 0.01 0.01 0.01 0.00 0.00 0.00 0.00 0.00 0.00
MSLP
1012.74 1013.07 1013.36 1013.60 1013.78 1013.91 1014.01 1014.09 1014.19 1014.32 1014.50 1014.73 1015.03 1015.38 1015.74 1016.10 1016.43 1016.71 1016.92 1017.06 1017.14 1017.18 1017.21 1017.26 1017.34 1017.48 1017.69 1017.94 1018.25 1018.57 1018.88 1019.15 1019.35 1019.45 1019.43 1019.27 1018.98 1018.56
1012.34 1012.59 1012.80 1012.95 1013.05 1013.12 1013.17 1013.23 1013.33 1013.48 1013.70 1013.98 1014.33 1014.73 1015.15 1015.56 1015.94 1016.27 1016.54 1016.75 1016.91 1017.04 1017.14 1017.26 1017.39 1017.55 1017.74 1017.97 1018.22 1018.47 1018.72 1018.92 1019.08 1019.16 1019.14 1019.01 1018.75 1018.37
1012.06 1012.22 1012.32 1012.37 1012.39 1012.39 1012.39 1012.43 1012.52 1012.68 1012.92 1013.24 1013.63 1014.07 1014.52 1014.98 1015.41 1015.79 1016.13 1016.42 1016.66 1016.87 1017.06 1017.24 1017.41 1017.59 1017.78 1017.96 1018.15 1018.32 1018.49 1018.63 1018.73 1018.79 1018.78 1018.68 1018.47 1018.15
1011.90 1011.96 1011.96 1011.92 1011.85 1011.77 1011.72 1011.71 1011.78 1011.94 1012.18 1012.52 1012.93 1013.38 1013.86 1014.35 1014.81 1015.24 1015.64 1016.00 1016.33 1016.62 1016.89 1017.14 1017.37 1017.57 1017.75 1017.90 1018.02 1018.13 1018.21 1018.29 1018.35 1018.39 1018.40 1018.34 1018.19 1017.94
1011.86 1011.81 1011.72 1011.58 1011.43 1011.28 1011.16 1011.11 1011.14 1011.27 1011.49 1011.82 1012.21 1012.67 1013.15 1013.64 1014.13 1014.60 1015.05 1015.47 1015.88 1016.26 1016.61 1016.93 1017.22 1017.45 1017.63 1017.76 1017.84 1017.89 1017.93 1017.96 1017.99 1018.02 1018.04 1018.03 1017.94 1017.75
1011.92 1011.78 1011.59 1011.37 1011.13 1010.90 1010.72 1010.60 1010.58 1010.66 1010.85 1011.13 1011.49 1011.92 1012.38 1012.87 1013.37 1013.86 1014.35 1014.83 1015.31 1015.77 1016.20 1016.60 1016.95 1017.22 1017.43 1017.56 1017.63 1017.66 1017.66 1017.67 1017.68 1017.72 1017.75 1017.77 1017.73 1017.59
1012.04 1011.82 1011.55 1011.25 1010.93 1010.62 1010.36 1010.17 1010.08 1010.09 1010.21 1010.44 1010.75 1011.14 1011.57 1012.05 1012.54 1013.05 1013.57 1014.11 1014.65 1015.18 1015.69 1016.16 1016.57 1016.90 1017.15 1017.32 1017.40 1017.44 1017.44 1017.44 1017.46 1017.49 1017.54 1017.58 1017.56 1017.44
1012.19 1011.89 1011.54 1011.16 1010.76 1010.37 1010.03 1009.76 1009.59 1009.53 1009.58 1009.74 1010.00 1010.34 1010.74 1011.20 1011.69 1012.21 1012.77 1013.34 1013.93 1014.53 1015.10 1015.64 1016.12 1016.52 1016.83 1017.04 1017.17 1017.24 1017.27 1017.29 1017.32 1017.36 1017.41 1017.45 1017.43 1017.31
1012.32 1011.94 1011.52 1011.06 1010.58 1010.12 1009.69 1009.33 1009.08 1008.93 1008.91 1009.01 1009.22 1009.53 1009.91 1010.35 1010.85 1011.40 1011.98 1012.59 1013.23 1013.87 1014.50 1015.10 1015.64 1016.10 1016.48 1016.75 1016.94 1017.07 1017.15 1017.20 1017.25 1017.31 1017.35 1017.37 1017.33 1017.18
1012.37 1011.93 1011.44 1010.91 1010.35 1009.80 1009.29 1008.85 1008.51 1008.30 1008.21 1008.26 1008.43 1008.72 1009.10 1009.55 1010.08 1010.65 1011.26 1011.91 1012.58 1013.26 1013.93 1014.56 1015.15 1015.67 1016.10 1016.45 1016.71 1016.90 1017.04 1017.14 1017.23 1017.29 1017.34 1017.34 1017.26 1017.08
1012.33 1011.83 1011.27 1010.67 1010.04 1009.41 1008.82 1008.31 1007.89 1007.61 1007.47 1007.49 1007.64 1007.93 1008.33 1008.82 1009.38 1009.99 1010.64 1011.33 1012.02 1012.72 1013.41 1014.07 1014.68 1015.24 1015.72 1016.13 1016.46 1016.72 1016.92 1017.08 1017.20 1017.29 1017.34 1017.32 1017.23 1017.02
1012.19 1011.64 1011.02 1010.36 1009.66 1008.96 1008.30 1007.71 1007.23 1006.89 1006.72 1006.71 1006.87 1007.18 1007.61 1008.15 1008.77 1009.43 1010.13 1010.84 1011.56 1012.27 1012.96 1013.62 1014.24 1014.81 1015.33 1015.78 1016.17 1016.49 1016.77 1016.99 1017.16 1017.28 1017.34 1017.33 1017.22 1017.01
1011.98 1011.38 1010.72 1010.01 1009.25 1008.49 1007.76 1007.11 1006.57 1006.19 1005.98 1005.96 1006.13 1006.47 1006.96 1007.55 1008.23 1008.96 1009.70 1010.45 1011.19 1011.90 1012.57 1013.22 1013.83 1014.40 1014.92 1015.40 1015.84 1016.22 1016.56 1016.84 1017.06 1017.23 1017.32 1017.33 1017.24 1017.05
1011.70 1011.09 1010.40 1009.65 1008.86 1008.04 1007.26 1006.54 1005.95 1005.52 1005.29 1005.26 1005.44 1005.81 1006.35 1007.01 1007.75 1008.54 1009.34 1010.12 1010.87 1011.58 1012.24 1012.86 1013.45 1014.00 1014.52 1015.01 1015.47 1015.90 1016.29 1016.63 1016.91 1017.13 1017.27 1017.32 1017.27 1017.12
1011.41 1010.79 1010.10 1009.34 1008.51 1007.66 1006.83 1006.07 1005.42 1004.95 1004.68 1004.63 1004.81 1005.21 1005.78 1006.50 1007.30 1008.15 1009.00 1009.82 1010.58 1011.29 1011.93 1012.53 1013.08 1013.61 1014.12 1014.61 1015.09 1015.55 1015.98 1016.37 1016.71 1016.98 1017.17 1017.27 1017.28 1017.20
1011.11 1010.52 1009.84 1009.08 1008.25 1007.38 1006.51 1005.70 1005.01 1004.48 1004.16 1004.08 1004.25 1004.65 1005.25 1006.00 1006.85 1007.75 1008.65 1009.50 1010.29 1011.00 1011.64 1012.21 1012.74 1013.24 1013.73 1014.22 1014.70 1015.18 1015.64 1016.07 1016.45 1016.77 1017.01 1017.16 1017.23 1017.21
1010.82 1010.27 1009.63 1008.89 1008.07 1007.19 1006.30 1005.45 1004.71 1004.13 1003.76 1003.63 1003.77 1004.15 1004.75 1005.51 1006.39 1007.33 1008.26 1009.15 1009.96 1010.69 1011.33 1011.90 1012.41 1012.90 1013.37 1013.85 1014.33 1014.82 1015.30 1015.75 1016.16 1016.51 1016.79 1016.98 1017.10 1017.14
1010.53 1010.03 1009.44 1008.75 1007.95 1007.08 1006.18 1005.30 1004.51 1003.88 1003.45 1003.26 1003.34 1003.69 1004.26 1005.02 1005.91 1006.86 1007.82 1008.74 1009.58 1010.33 1010.99 1011.57 1012.09 1012.57 1013.04 1013.52 1014.00 1014.48 1014.97 1015.43 1015.85 1016.21 1016.51 1016.73 1016.87 1016.94
1010.21 1009.78 1009.25 1008.60 1007.85 1007.00 1006.09 1005.20 1004.38 1003.69 1003.20 1002.96 1002.98 1003.27 1003.80 1004.53 1005.41 1006.36 1007.33 1008.28 1009.15 1009.94 1010.63 1011.23 1011.77 1012.27 1012.74 1013.22 1013.70 1014.19 1014.66 1015.12 1015.54 1015.90 1016.20 1016.41 1016.56 1016.65
1009.88 1009.49 1009.02 1008.42 1007.71 1006.89 1006.00 1005.11 1004.26 1003.54 1003.01 1002.70 1002.66 1002.89 1003.37 1004.05 1004.90 1005.84 1006.82 1007.78 1008.68 1009.50 1010.23 1010.87 1011.44 1011.97 1012.46 1012.95 1013.44 1013.93 1014.40 1014.85 1015.26 1015.61 1015.89 1016.09 1016.23 1016.31
1009.51 1009.17 1008.74 1008.19 1007.52 1006.73 1005.87 1004.98 1004.13 1003.39 1002.82 1002.47 1002.37 1002.55 1002.97 1003.61 1004.41 1005.33 1006.30 1007.27 1008.19 1009.04 1009.80 1010.49 1011.10 1011.66 1012.19 1012.70 1013.21 1013.70 1014.17 1014.62 1015.01 1015.35 1015.61 1015.81 1015.93 1016.00
1009.13 1008.81 1008.40 1007.89 1007.25 1006.49 1005.66 1004.80 1003.97 1003.23 1002.64 1002.26 1002.13 1002.25 1002.62 1003.21 1003.97 1004.85 1005.80 1006.76 1007.69 1008.57 1009.36 1010.09 1010.74 1011.35 1011.92 1012.46 1012.98 1013.49 1013.97 1014.42 1014.82 1015.15 1015.41 1015.60 1015.72 1015.79
1008.77 1008.44 1008.04 1007.53 1006.91 1006.18 1005.38 1004.55 1003.74 1003.02 1002.44 1002.06 1001.90 1001.99 1002.32 1002.86 1003.58 1004.42 1005.34 1006.29 1007.22 1008.10 1008.92 1009.68 1010.37 1011.02 1011.62 1012.20 1012.75 1013.29 1013.79 1014.25 1014.66 1015.01 1015.29 1015.49 1015.63 1015.72
Thickness
5608 5607 5605 5604 5602 5601 5599 5597 5593 5591 5592 5592 5588 5588 5585 5583 5582 5579 5576 5574 5571 5570 5568 5566 5564 5562 5561 5559 5558 5556 5555 5553 5551 5550 5549 5548 5547 5546
5601 5599 5598 5597 5595 5593 5592 5590 5589 5587 5586 5586 5582 5580 5576 5573 5572 5569 5567 5564 5562 5561 5559 5557 5554 5553 5551 5550 5548 5546 5545 5543 5542 5541 5540 5539 5538 5537
5593 5592 5591 5588 5587 5585 5584 5582 5580 5578 5577 5574 5570 5568 5566 5564 5561 5558 5557 5555 5552 5551 5549 5548 5546 5544 5542 5540 5539 5537 5536 5534 5532 5531 5530 5530 5529 5529
5584 5583 5581 5579 5578 5576 5574 5572 5571 5569 5567 5564 5559 5556 5555 5554 5551 5548 5546 5544 5542 5540 5539 5538 5536 5534 5532 5530 5529 5527 5526 5524 5523 5522 5521 5521 5520 5520
5575 5573 5571 5569 5567 5565 5564 5563 5561 5558 5557 5554 5551 5546 5544 5542 5539 5536 5534 5533 5531 5529 5528 5528 5526 5525 5523 5521 5519 5517 5516 5515 5513 5513 5512 5512 5511 5511
5564 5563 5561 5559 5557 5555 5553 5552 5549 5547 5544 5542 5539 5535 5533 5531 5529 5526 5523 5521 5520 5519 5518 5517 5516 5515 5513 5512 5510 5508 5507 5506 5504 5504 5503 5503 5503 5503
5552 5551 5549 5547 5545 5544 5542 5541 5538 5536 5533 5531 5528 5525 5522 5520 5520 5517 5514 5510 5508 5507 5506 5505 5505 5504 5503 5502 5500 5498 5497 5496 5495 5494 5494 5494 5494 5494
5540 5538 5535 5533 5531 5530 5529 5529 5527 5525 5523 5520 5518 5517 5517 5514 5510 5505 5502 5498 5497 5496 5494 5493 5494 5493 5492 5491 5490 5489 5487 5486 5486 5485 5485 5485 5485 5486
5525 5523 5520 5518 5516 5514 5514 5514 5513 5512 5511 5509 5507 5507 5505 5503 5498 5493 5492 5491 5491 5487 5483 5482 5481 5481 5481 5480 5479 5479 5478 5477 5476 5476 5475 5475 5476 5477
5508 5506 5503 5501 5498 5497 5496 5495 5495 5494 5494 5493 5493 5494 5492 5491 5487 5485 5482 5476 5473 5472 5473 5472 5469 5469 5469 5469 5470 5469 5469 5467 5467 5467 5466 5466 5467 5468
5489 5486 5484 5482 5481 5480 5478 5477 5477 5476 5475 5475 5476 5476 5475 5475 5473 5468 5465 5463 5461 5459 5458 5460 5458 5456 5455 5457 5458 5459 5459 5458 5458 5457 5457 5457 5458 5459
5468 5465 5462 5461 5461 5460 5458 5458 5458 5458 5457 5457 5456 5457 5457 5457 5458 5458 5456 5453 5451 5448 5447 5447 5446 5445 5445 5445 5446 5448 5449 5448 5448 5447 5447 5448 5450 5451
5445 5442 5440 5439 5438 5438 5437 5437 5438 5437 5436 5436 5436 5437 5437 5438 5439 5441 5442 5442 5442 5441 5440 5437 5436 5436 5437 5434 5435 5436 5437 5437 5437 5437 5438 5439 5441 5442
5421 5419 5418 5417 5416 5415 5415 5416 5416 5416 5415 5415 5417 5418 5420 5420 5422 5423 5425 5427 5429 5431 5430 5429 5428 5427 5426 5425 5425 5425 5425 5426 5427 5427 5428 5430 5431 5432
5398 5397 5395 5394 5393 5393 5393 5393 5394 5394 5395 5397 5400 5402 5404 5405 5405 5405 5406 5409 5410 5413 5415 5417 5419 5418 5418 5419 5417 5415 5415 5416 5417 5417 5418 5420 5421 5422
5376 5374 5373 5372 5372 5372 5372 5372 5372 5374 5376 5380 5383 5385 5386 5387 5389 5391 5391 5393 5394 5395 5398 5402 5405 5408 5407 5407 5407 5406 5406 5407 5407 5408 5409 5410 5411 5412
5357 5355 5353 5351 5351 5351 5352 5353 5354 5356 5358 5362 5365 5368 5371 5373 5375 5377 5379 5380 5383 5385 5384 5386 5389 5393 5396 5396 5395 5397 5397 5397 5398 5399 5400 5400 5401 5403
5338 5335 5334 5333 5333 5333 5334 5336 5337 5340 5343 5347 5351 5354 5357 5361 5363 5364 5367 5370 5374 5375 5375 5376 5377 5379 5381 5383 5387 5388 5388 5388 5389 5390 5391 5391 5392 5394
5319 5317 5316 5316 5316 5316 5317 5319 5323 5326 5329 5333 5337 5341 5345 5349 5352 5354 5357 5360 5363 5365 5366 5367 5369 5372 5374 5376 5378 5380 5381 5380 5380 5380 5381 5383 5384 5386
5301 5300 5300 5299 5300 5300 5302 5304 5309 5313 5317 5321 5326 5330 5335 5339 5343 5346 5349 5352 5355 5355 5356 5357 5360 5365 5369 5370 5369 5370 5372 5373 5372 5372 5372 5373 5374 5377
5286 5285 5284 5284 5285 5287 5290 5293 5297 5302 5307 5312 5317 5321 5326 5330 5335 5339 5342 5345 5347 5348 5349 5351 5353 5356 5357 5358 5358 5360 5362 5364 5366 5365 5364 5364 5365 5367
5272 5272 5272 5272 5274 5277 5280 5284 5288 5294 5299 5304 5310 5314 5319 5324 5328 5333 5336 5339 5341 5342 5343 5343 5344 5345 5347 5350 5351 5351 5352 5353 5356 5357 5358 5361 5360 5361
5260 5260 5261 5263 5265 5268 5272 5276 5281 5286 5292 5297 5303 5308 5313 5318 5323 5327 5331 5333 5335 5335 5335 5335 5335 5337 5339 5341 5342 5343 5343 5344 5346 5347 5348 5351 5354 5356